{"data":{"norad_id":66890,"epoch":"2026-09-20T07:42:24.172704Z","epoch_age_seconds":99474,"freshness":"FRESH","line1":"1 66890U 25283N   26263.32111311  .00019564  00000+0  58805-3 0  9994","line2":"2 66890  53.1584 196.5412 0001327 104.5381 255.5769 15.34432854 45692","mean_motion":15.34432854,"eccentricity":0.0001327,"inclination_deg":53.1584,"raan_deg":196.5412,"arg_perigee_deg":104.5381,"mean_anomaly_deg":255.5769,"bstar":0.00058805,"rev_number":4569,"period_min":93.845748691197,"perigee_km":461.69782639568,"apogee_km":463.51335947984,"semimajor_km":6840.7425929378,"source":"CELESTRAK","updated_at":"2026-09-21T09:00:36.034573Z"}}